Regional Weather Roundup
Issued by NWS Little Rock, AR

Home | Current Version | Previous Version | Text Only | Print | Product List | Glossary On
Versions: 1 2 3 4 5 6 7 8 9 10 11 12 13 14 15 16 17 18 19 20 21 22 23 24 25 26 27 28
000
ASUS44 KLZK 301305
RWRLZK

WEATHER ROUNDUP FOR ARKANSAS
NATIONAL WEATHER SERVICE LITTLE ROCK AR
800 AM CDT TUE AUG 30 2016

NOTE: "FAIR" INDICATES FEW OR NO CLOUDS BELOW 12,000 FEET WITH NO
SIGNIFICANT WEATHER AND/OR OBSTRUCTIONS TO VISIBILITY.

ARZ001-003-010-029-301400-
NORTHWEST ARKANSAS

CITY           SKY/WX    TMP DP  RH WIND       PRES   REMARKS
FAYETTEVILLE   FOG       69  69 100 CALM      30.16R VSB 1/2
FORT SMITH     SUNNY     75  71  87 CALM      30.10R
HARRISON       SUNNY     72  70  93 CALM      30.16S
BENTONVILLE    SUNNY     73  66  78 CALM      30.17R
ROGERS         SUNNY     72  70  93 CALM      30.17S
SILOAM SPGS    SUNNY     73  63  68 E3        30.13F
HIGHFILL       SUNNY     74  71  91 CALM      30.16R
SPRINGDALE     SUNNY     72  70  94 E3        30.18R
$$

ARZ004-005-016-301400-
NORTH CENTRAL ARKANSAS

CITY           SKY/WX    TMP DP  RH WIND       PRES   REMARKS
BATESVILLE     SUNNY     73  73 100 CALM      30.12R
FLIPPIN        SUNNY     72  68  88 CALM      30.11S
MTN HOME       SUNNY     74  73  97 E3        30.13S
$$

ARZ040-041-301400-
WEST CENTRAL ARKANSAS

CITY           SKY/WX    TMP DP  RH WIND       PRES   REMARKS
MENA           MOSUNNY   72  72 100 CALM      30.11S
MOUNT IDA      SUNNY     73  71  93 CALM      30.08R
$$

ARZ009-017-025-026-028-301400-
NORTHEAST ARKANSAS

CITY           SKY/WX    TMP DP  RH WIND       PRES   REMARKS
JONESBORO      MOSUNNY   80  76  87 NE6       30.09R HX  86
NEWPORT        MOSUNNY   77  76  96 N6        30.10R FOG
WALNUT RIDGE   MOSUNNY   77  73  88 N8        30.10R
BLYTHEVILLE    SUNNY     79  76  90 E3        30.10R
$$

ARZ022-023-033-042-044-301400-
CENTRAL ARKANSAS

CITY           SKY/WX    TMP DP  RH WIND       PRES   REMARKS
LITTLE ROCK    MOSUNNY   81  75  82 N5        30.08R HX  87
N LITTLE ROCK    N/A     78  75  89 NE3       30.05R
JACKSONVILLE   SUNNY     78  77  95 CALM      30.08R
SEARCY         SUNNY     78  76  93 N6        30.10R
HOT SPRINGS    SUNNY     78  75  90 CALM      30.08R
RUSSELLVILLE   SUNNY     74  73  97 CALM      30.09R FOG
$$

ARZ036-301400-
EAST ARKANSAS

CITY           SKY/WX    TMP DP  RH WIND       PRES   REMARKS
WEST MEMPHIS   MOSUNNY   79  75  87 E6        30.07R
$$

ARZ050-053-066-070-073-301400-
SOUTHWEST ARKANSAS

CITY           SKY/WX    TMP DP  RH WIND       PRES   REMARKS
ARKADELPHIA    FAIR      77  75  93 NE6       30.06R
TEXARKANA      MOSUNNY   76  73  91 NE6       30.04S FOG
EL DORADO      SUNNY     75  73  93 N3        30.04R
DE QUEEN       SUNNY     77  76  96 CALM      30.04R
$$

ARZ056-057-069-301400-
SOUTHEAST ARKANSAS

CITY           SKY/WX    TMP DP  RH WIND       PRES   REMARKS
PINE BLUFF     SUNNY     76  75  97 N3        30.06R FOG
STUTTGART      SUNNY     77  73  88 N6        30.07S
MONTICELLO     SUNNY     80  75  84 NE3       30.04S HX  85

$$






USA.gov is the U.S. government's official web portal to all federal, state and local government web resources and services.